Hourly Weather Ohotnica

Today, 29 September, Tuesday

Time Temperature Precipitation Wind Pressure Humidity
00:00 +12°C° 0 mm 2 mps 755 mmHg 92%
01:00 +12°C° 0 mm 2 mps 755 mmHg 91%
02:00 +10°C° 0 mm 2 mps 755 mmHg 90%
03:00 +10°C° 0 mm 2 mps 755 mmHg 91%
04:00 +10°C° 0 mm 1 mps 754 mmHg 91%
05:00 +9°C° 0 mm 1 mps 754 mmHg 92%
06:00 +10°C° 0 mm 1 mps 754 mmHg 90%
07:00 +9°C° 0 mm 2 mps 754 mmHg 88%
08:00 +10°C° 0 mm 2 mps 755 mmHg 87%
09:00 +12°C° 0 mm 2 mps 755 mmHg 82%
10:00 +14°C° 0 mm 2 mps 755 mmHg 77%
11:00 +15°C° 0 mm 2 mps 755 mmHg 72%
12:00 +16°C° 0 mm 2 mps 754 mmHg 67%
13:00 +17°C° 0 mm 2 mps 754 mmHg 63%
14:00 +17°C° 0 mm 2 mps 754 mmHg 58%
15:00 +17°C° 0 mm 2 mps 754 mmHg 64%
16:00 +16°C° 0 mm 2 mps 754 mmHg 69%
17:00 +15°C° 0 mm 2 mps 753 mmHg 74%
18:00 +14°C° 0 mm 2 mps 753 mmHg 79%
19:00 +12°C° 0 mm 2 mps 753 mmHg 84%
20:00 +10°C° 0 mm 2 mps 754 mmHg 89%
21:00 +10°C° 0 mm 2 mps 753 mmHg 90%
22:00 +10°C° 0 mm 2 mps 753 mmHg 92%
23:00 +9°C° 0 mm 2 mps 753 mmHg 94%

Tomorrow, 30 September, Wednesday

Time Temperature Precipitation Wind Pressure Humidity
00:00 +9°C° 0 mm 2 mps 753 mmHg 94%
01:00 +9°C° 0 mm 2 mps 753 mmHg 95%
02:00 +9°C° 0 mm 2 mps 753 mmHg 95%
03:00 +9°C° 0 mm 2 mps 753 mmHg 94%
04:00 +9°C° 0 mm 2 mps 752 mmHg 92%
05:00 +9°C° 0 mm 2 mps 752 mmHg 91%
06:00 +9°C° 0 mm 3 mps 752 mmHg 86%
07:00 +10°C° 0 mm 3 mps 752 mmHg 81%
08:00 +10°C° 0 mm 3 mps 752 mmHg 76%
09:00 +12°C° 0 mm 3 mps 752 mmHg 70%
10:00 +13°C° 0 mm 3 mps 752 mmHg 64%
11:00 +16°C° 0 mm 3 mps 752 mmHg 58%
12:00 +17°C° 0 mm 4 mps 752 mmHg 56%
13:00 +17°C° 0 mm 4 mps 751 mmHg 54%
14:00 +18°C° 0 mm 4 mps 751 mmHg 52%
15:00 +17°C° 0 mm 4 mps 751 mmHg 57%
16:00 +16°C° 0 mm 3 mps 751 mmHg 61%
17:00 +14°C° 0 mm 3 mps 751 mmHg 66%
18:00 +13°C° 0 mm 3 mps 752 mmHg 69%
19:00 +12°C° 0 mm 3 mps 752 mmHg 72%
20:00 +11°C° 0 mm 3 mps 752 mmHg 75%
21:00 +10°C° 0 mm 3 mps 752 mmHg 76%
22:00 +10°C° 0 mm 3 mps 752 mmHg 76%
23:00 +9°C° 0 mm 3 mps 752 mmHg 77%

Day after tomorrow, 1 October, Thursday

Time Temperature Precipitation Wind Pressure Humidity
00:00 +9°C° 0 mm 3 mps 752 mmHg 77%
01:00 +9°C° 0 mm 3 mps 752 mmHg 77%
02:00 +8°C° 0 mm 3 mps 752 mmHg 76%
03:00 +8°C° 0 mm 3 mps 751 mmHg 77%
04:00 +8°C° 0 mm 3 mps 751 mmHg 77%
05:00 +8°C° 0 mm 3 mps 751 mmHg 78%
06:00 +9°C° 0 mm 3 mps 751 mmHg 75%
07:00 +10°C° 0 mm 4 mps 751 mmHg 72%
08:00 +11°C° 0 mm 4 mps 751 mmHg 68%
09:00 +12°C° 0 mm 4 mps 751 mmHg 64%
10:00 +13°C° 0 mm 5 mps 751 mmHg 60%
11:00 +15°C° 0 mm 5 mps 752 mmHg 56%
12:00 +15°C° 0 mm 5 mps 752 mmHg 55%
13:00 +15°C° 0 mm 5 mps 752 mmHg 55%
14:00 +16°C° 0 mm 5 mps 752 mmHg 55%
15:00 +15°C° 0 mm 4 mps 752 mmHg 59%
16:00 +14°C° 0 mm 4 mps 752 mmHg 63%
17:00 +14°C° 0 mm 3 mps 752 mmHg 67%
18:00 +13°C° 0 mm 3 mps 752 mmHg 68%
19:00 +12°C° 0 mm 3 mps 752 mmHg 69%
20:00 +12°C° 0 mm 3 mps 753 mmHg 70%
21:00 +11°C° 0 mm 3 mps 753 mmHg 72%
22:00 +11°C° 0 mm 3 mps 753 mmHg 73%
23:00 +10°C° 0 mm 3 mps 752 mmHg 75%

2 October, Friday

Time Temperature Precipitation Wind Pressure Humidity
00:00 +10°C° 0 mm 3 mps 752 mmHg 75%
01:00 +10°C° 0 mm 3 mps 752 mmHg 75%
02:00 +9°C° 0 mm 3 mps 752 mmHg 75%
03:00 +9°C° 0 mm 3 mps 753 mmHg 75%
04:00 +9°C° 0 mm 3 mps 753 mmHg 74%
05:00 +9°C° 0 mm 3 mps 753 mmHg 74%
06:00 +9°C° 0 mm 3 mps 753 mmHg 72%
07:00 +10°C° 0 mm 4 mps 753 mmHg 71%
08:00 +11°C° 0 mm 4 mps 753 mmHg 70%
09:00 +12°C° 0 mm 4 mps 753 mmHg 67%
10:00 +13°C° 0 mm 5 mps 753 mmHg 64%
11:00 +14°C° 0 mm 5 mps 753 mmHg 62%
12:00 +14°C° 0 mm 5 mps 753 mmHg 62%
13:00 +15°C° 0 mm 5 mps 753 mmHg 62%
14:00 +15°C° 0 mm 5 mps 753 mmHg 62%
15:00 +14°C° 0 mm 5 mps 753 mmHg 65%
16:00 +13°C° 0 mm 5 mps 753 mmHg 68%
17:00 +12°C° 0 mm 5 mps 754 mmHg 72%
18:00 +12°C° 0 mm 4 mps 754 mmHg 72%
19:00 +12°C° 0 mm 4 mps 754 mmHg 72%
20:00 +12°C° 0 mm 3 mps 754 mmHg 72%
21:00 +11°C° 0 mm 3 mps 754 mmHg 73%
22:00 +11°C° 0 mm 3 mps 754 mmHg 74%
23:00 +11°C° 0 mm 3 mps 754 mmHg 76%

3 October, Saturday

Time Temperature Precipitation Wind Pressure Humidity
00:00 +11°C° 0 mm 3 mps 754 mmHg 77%
01:00 +10°C° 0 mm 3 mps 754 mmHg 78%
02:00 +10°C° 0 mm 3 mps 754 mmHg 80%
03:00 +10°C° 0 mm 3 mps 754 mmHg 80%
04:00 +10°C° 0 mm 3 mps 754 mmHg 80%
05:00 +10°C° 0 mm 3 mps 753 mmHg 80%
06:00 +11°C° 0 mm 3 mps 753 mmHg 79%
07:00 +12°C° 0 mm 4 mps 753 mmHg 78%
08:00 +12°C° 0 mm 4 mps 753 mmHg 77%
09:00 +13°C° 0 mm 4 mps 754 mmHg 76%
10:00 +13°C° 0 mm 4 mps 754 mmHg 74%
11:00 +13°C° 0 mm 4 mps 754 mmHg 73%
12:00 +14°C° 0 mm 4 mps 754 mmHg 73%
13:00 +14°C° 0 mm 4 mps 754 mmHg 73%
14:00 +14°C° 0 mm 4 mps 754 mmHg 73%
15:00 +14°C° 0 mm 4 mps 753 mmHg 76%
16:00 +13°C° 0 mm 4 mps 753 mmHg 79%
17:00 +13°C° 0 mm 4 mps 753 mmHg 83%
18:00 +13°C° 0 mm 4 mps 753 mmHg 82%
19:00 +13°C° 0 mm 4 mps 753 mmHg 82%
20:00 +12°C° 0 mm 5 mps 753 mmHg 82%
21:00 +12°C° 0 mm 4 mps 753 mmHg 82%
22:00 +12°C° 0 mm 4 mps 753 mmHg 81%
23:00 +11°C° 0 mm 4 mps 753 mmHg 81%

4 October, Sunday

Time Temperature Precipitation Wind Pressure Humidity
00:00 +11°C° 0 mm 4 mps 753 mmHg 82%
01:00 +11°C° 0 mm 3 mps 753 mmHg 83%
02:00 +11°C° 0 mm 3 mps 753 mmHg 83%
03:00 +11°C° 0 mm 4 mps 753 mmHg 82%
04:00 +11°C° 0 mm 4 mps 753 mmHg 82%
05:00 +11°C° 0 mm 4 mps 753 mmHg 81%
06:00 +11°C° 0 mm 4 mps 753 mmHg 79%
07:00 +11°C° 0 mm 4 mps 753 mmHg 78%
08:00 +11°C° 0 mm 4 mps 753 mmHg 76%
09:00 +12°C° 0 mm 5 mps 753 mmHg 72%
10:00 +13°C° 0 mm 5 mps 753 mmHg 68%
11:00 +14°C° 0 mm 5 mps 753 mmHg 64%
12:00 +15°C° 0 mm 5 mps 753 mmHg 64%
13:00 +15°C° 0 mm 5 mps 753 mmHg 64%
14:00 +15°C° 0 mm 5 mps 752 mmHg 65%
15:00 +15°C° 0 mm 5 mps 752 mmHg 68%
16:00 +14°C° 0 mm 5 mps 752 mmHg 72%
17:00 +13°C° 0 mm 5 mps 752 mmHg 76%
18:00 +12°C° 0 mm 5 mps 752 mmHg 76%
19:00 +10°C° 0 mm 5 mps 752 mmHg 77%
20:00 +10°C° 0 mm 5 mps 752 mmHg 77%
21:00 +9°C° 0 mm 5 mps 752 mmHg 81%
22:00 +9°C° 0 mm 5 mps 752 mmHg 84%
23:00 +8°C° 0 mm 5 mps 752 mmHg 87%
Show more